This demonstration page uses our WeatherBlox Daily Observations layout. Learn more.

Left ArrowRight Arrow

Hourly Observations for October 26, 2021

Temp ( °F °C ) Dew Point ( °F °C ) Humidity (%) Winds ( mph kmh ) Pressure ( in mb ) Visibility ( mi km ) Precip ( " mm )
12:15 am 00:15 Cloudy 44 6.8 43 6.1 95 95 SE 13 20 29.93 1014 10 16 N/A
12:35 am 00:35 Cloudy 45 7 43 6.2 95 95 SE 13 20 29.93 1014 10 16 N/A
12:55 am 00:55 Cloudy 45 7 44 6.5 97 97 SE 14 22 29.92 1013 10 16 N/A
1:15 am 01:15 Cloudy 45 7.2 44 6.6 96 96 SE 16 26 29.90 1012 10 16 N/A
1:35 am 01:35 Cloudy 45 7.2 44 6.6 96 96 SE 18 30 29.90 1012 10 16 N/A
1:55 am 01:55 Cloudy 46 7.5 45 7 97 97 SSE 17 28 29.89 1012 10 16 N/A
2:15 am 02:15 Cloudy 46 7.7 45 7.2 97 97 SSE 16 26 29.87 1012 10 16 N/A
2:35 am 02:35 Cloudy 46 8 45 7.2 95 95 SSE 17 28 29.86 1011 10 16 N/A
2:55 am 02:55 Cloudy 46 7.9 45 7.1 95 95 SE 18 30 29.86 1011 10 16 N/A
3:15 am 03:15 Cloudy 46 8 45 7.2 95 95 SSE 18 30 29.85 1011 10 16 N/A
3:35 am 03:35 Cloudy 46 8 45 7.2 95 95 SSE 17 28 29.84 1011 10 16 N/A
3:55 am 03:55 Cloudy 47 8.1 45 7.3 95 95 SE 22 35 29.83 1010 10 16 N/A
4:15 am 04:15 Cloudy 46 8 45 7.1 94 94 SE 21 33 29.82 1010 10 16 N/A
4:35 am 04:35 Cloudy 47 8.1 45 7.1 93 93 SSE 15 24 29.82 1010 10 16 N/A
4:55 am 04:55 Cloudy 47 8.1 45 7.2 94 94 SSE 14 22 29.81 1009 10 16 N/A
5:15 am 05:15 Cloudy 47 8.1 45 7.1 93 93 SSE 18 30 29.81 1009 10 16 N/A
5:35 am 05:35 Cloudy 47 8.2 45 7.1 93 93 SSE 14 22 29.81 1009 10 16 N/A
5:55 am 05:55 Cloudy 47 8.3 45 7.2 93 93 SSE 17 28 29.80 1009 10 16 N/A
6:15 am 06:15 Cloudy 47 8.3 45 7.2 93 93 SE 16 26 29.78 1008 10 16 N/A
6:35 am 06:35 Cloudy 47 8.2 45 7.2 93 93 SSE 18 30 29.78 1008 10 16 N/A
6:55 am 06:55 Cloudy 47 8.3 45 7.3 93 93 SSE 15 24 29.77 1008 10 16 N/A
7:15 am 07:15 Cloudy with Mist and Fog 46 8 45 7.3 95 95 SSE 17 28 29.76 1008 5 8 N/A
7:35 am 07:35 Cloudy with Mist and Fog 46 8 45 7.3 95 95 SSE 14 22 29.75 1007 3 5 N/A
7:55 am 07:55 Cloudy 46 8 46 7.5 97 97 SE 18 30 29.74 1007 10 16 N/A
8:15 am 08:15 Cloudy 47 8.1 45 7.3 95 95 SSE 20 31 29.73 1007 10 16 N/A
8:35 am 08:35 Cloudy 47 8.1 45 7.2 94 94 SSE 17 28 29.73 1007 10 16 N/A
8:55 am 08:55 Cloudy 46 8 45 7 93 93 SSE 20 31 29.72 1006 10 16 N/A
9:15 am 09:15 Cloudy 47 8.1 45 7.2 94 94 SSE 17 28 29.72 1006 10 16 N/A
9:35 am 09:35 Cloudy 47 8.3 45 7.3 93 93 SSE 21 33 29.71 1006 10 16 N/A
9:55 am 09:55 Cloudy 47 8.5 45 7.3 92 92 SSE 21 33 29.70 1006 10 16 N/A
10:15 am 10:15 Cloudy 48 8.9 46 7.6 92 92 SSE 17 28 29.69 1005 10 16 N/A
10:35 am 10:35 Cloudy 48 9.1 46 8 93 93 SSE 18 30 29.68 1005 10 16 N/A
10:55 am 10:55 Cloudy with Mist and Fog 49 9.5 47 8.6 94 94 SSE 22 35 29.66 1004 4 6 N/A
11:15 am 11:15 Cloudy with Mist and Fog 50 9.8 49 9.2 96 96 SSE 20 31 29.63 1004 3 5 N/A
11:35 am 11:35 Cloudy with Mist and Fog 50 10.2 49 9.6 96 96 SSE 20 31 29.63 1003 4 6 N/A
11:55 am 11:55 Cloudy with Mist and Fog 51 10.5 50 10 97 97 SSE 12 19 29.63 1003 3 4 N/A
12:15 pm 12:15 Cloudy with Mist and Fog 51 10.7 50 10.2 97 97 SSE 16 26 29.61 1003 3 5 N/A
12:35 pm 12:35 Cloudy with Mist and Fog 52 11 51 10.5 97 97 SSE 15 24 29.59 1002 5 8 N/A
12:55 pm 12:55 Cloudy 53 11.7 52 11 96 96 SSE 17 28 29.58 1002 10 16 N/A
1:15 pm 13:15 Cloudy 55 12.5 52 11.3 92 92 SSE 17 28 29.55 1001 10 16 N/A
1:35 pm 13:35 Cloudy 56 13.4 53 11.8 90 90 SSE 23 37 29.52 1000 10 16 N/A
1:55 pm 13:55 Cloudy 58 14.2 54 12 87 87 SSE 16 26 29.51 999 10 16 N/A
2:15 pm 14:15 Cloudy 59 15 54 12.3 84 84 SSE 20 31 29.49 999 10 16 N/A
2:35 pm 14:35 Cloudy 61 16.1 55 12.7 80 80 SSE 23 37 29.46 998 10 16 N/A
2:55 pm 14:55 Mostly Cloudy 65 18.4 56 13.3 72 72 SSE 26 43 29.42 996 10 16 N/A
3:15 pm 15:15 Mostly Cloudy 66 19 56 13.2 69 69 SE 29 46 29.41 996 10 16 N/A
3:35 pm 15:35 Mostly Cloudy 65 18.4 56 13.4 73 73 SSE 24 39 29.40 996 10 16 N/A
3:55 pm 15:55 Partly Cloudy 65 18.3 56 13.5 74 74 SSE 26 43 29.40 996 10 16 N/A
4:15 pm 16:15 Partly Cloudy 65 18.1 57 13.8 76 76 SSE 29 46 29.39 995 10 16 N/A
4:35 pm 16:35 Cloudy 64 18 57 14.1 78 78 SSE 24 39 29.40 995 10 16 N/A
4:55 pm 16:55 Cloudy 64 17.5 58 14.2 81 81 SE 23 37 29.40 996 10 16 N/A
5:15 pm 17:15 Cloudy 63 17.1 58 14.5 85 85 SSE 24 39 29.40 996 10 16 N/A
5:35 pm 17:35 Cloudy 63 17.1 58 14.7 86 86 SSE 22 35 29.40 996 10 16 N/A
5:55 pm 17:55 Cloudy 63 17 59 15 88 88 SE 22 35 29.41 996 10 16 N/A
6:15 pm 18:15 Cloudy 62 16.6 59 15.1 91 91 SE 23 37 29.42 996 7 11 N/A
6:35 pm 18:35 Cloudy 62 16.7 60 15.5 93 93 SE 25 41 29.41 996 7 11 N/A
6:55 pm 18:55 Cloudy 63 17 60 15.7 92 92 SE 24 39 29.39 995 7 11 N/A
7:15 pm 19:15 Cloudy 63 17.1 60 15.8 92 92 SE 25 41 29.39 995 7 11 N/A
7:35 pm 19:35 Cloudy 64 17.5 61 16 91 91 SE 25 41 29.39 995 10 16 N/A
7:55 pm 19:55 Cloudy 64 17.7 61 16.2 91 91 SE 29 46 29.39 995 10 16 N/A
8:15 pm 20:15 Cloudy 64 18 62 16.4 90 90 SE 26 43 29.37 994 10 16 N/A
8:35 pm 20:35 Cloudy 65 18.5 62 16.8 90 90 SSE 24 39 29.37 995 10 16 N/A
8:55 pm 20:55 Cloudy 65 18.6 62 16.7 89 89 SE 26 43 29.37 995 10 16 N/A
9:15 pm 21:15 Cloudy 66 18.8 62 16.6 87 87 SE 22 35 29.38 995 10 16 N/A
9:35 pm 21:35 Cloudy with Nearby Thunderstorms 66 19 62 16.5 86 86 SSE 18 30 29.39 995 10 16 N/A
9:55 pm 21:55 Cloudy with Thunderstorms 66 19 62 16.7 87 87 SW 17 28 29.43 996 10 16 N/A
10:15 pm 22:15 Cloudy with Strong Thunderstorms 61 16.1 59 14.9 93 93 S 22 35 29.48 998 2 3 0.40 10.16
10:35 pm 22:35 Cloudy 60 15.5 55 12.6 83 83 SE 17 28 29.44 997 10 16 0.42 10.67
10:55 pm 22:55 Windy with Storms Likely 63 17.1 53 11.8 71 71 SE 24 39 29.41 996 10 16 0.44 11.18
11:15 pm 23:15 Cloudy with Light Rain 63 17.1 52 11.3 69 69 SE 29 46 29.37 995 10 16 0.01 0.25
11:35 pm 23:35 Partly Cloudy 63 17.1 52 11.2 68 68 S 22 35 29.42 996 10 16 0.01 0.25
11:55 pm 23:55 Clear 60 15.7 54 12 79 79 SSE 12 19 29.43 997 10 16 0.01 0.25

Powered by AerisWeather